Simultaneous Nadir Overpasses (SNOs) Predictions

Prediction of SNOs between GOES-15 and TERRA Satellite Orbit:

Table of predicted SNOs for the next 14.0 days since TLE Epoch: 9/5/2015
Index Date Time (GOES-15) GOES-15 Lat,Lon TERRA Lat,Lon Distance(km) Time Diff (sec)
1 09/05/2015 19:16:20 -0.29,-135.19 -1.14,-131.27 446.03 80
2 09/06/2015 07:35:04 0.31,-135.15 0.06,-136.47 148.67 80
3 09/08/2015 07:25:30 0.31,-135.18 0.67,-133.50 191.50 80
4 09/08/2015 19:44:05 -0.32,-135.23 0.43,-138.65 389.51 80
5 09/10/2015 19:31:52 -0.32,-135.25 -0.25,-135.69 49.72 80
6 09/12/2015 19:22:18 -0.32,-135.27 -0.87,-132.73 289.86 80
7 09/13/2015 07:41:01 0.33,-135.23 -0.26,-137.91 304.63 80
8 09/15/2015 07:31:27 0.33,-135.25 0.37,-134.94 34.43 80
9 09/17/2015 07:19:13 0.32,-135.26 1.01,-131.98 372.75 80
10 09/17/2015 19:37:48 -0.34,-135.30 0.08,-137.13 209.04 80




NCC Satellite Simultaneous Nadir Overpasses (SNOs) Prediction Service
